[Date Prev][Date Next][Thread Prev][Thread Next] - [Date Index][Thread Index][Author Index]

2 Line ISS Keps 12-23



ISS
1 25544U 98067A   03357.16305556  .00021121  00000-0  20865-3 0  9237
2 25544  51.6287 146.3026 0006029 287.3176  62.0899 15.65831649290546


----
Via the sarex mailing list at AMSAT.ORG courtesy of AMSAT-NA.
To unsubscribe, send "unsubscribe sarex" to Majordomo@amsat.org



AMSAT Top AMSAT Home